When you browse on this site, cookies collect data to enhance your experience and personalize the content and advertising you see.
Visit our Privacy Policy to learn more. By continuing to use the site, you agree to this use of cookies and data.
  • In Latvia
  • List of Countries
  • For 7 days
  • Water Temperature
  • Satellite Maps
  • Weather Map
  • Weather Widgets
  • user-avatar
    Login

    Hourly Weather Igls

    Today, 16 June, Sunday

    Time Temperature Precipitation Wind Pressure Humidity
    00:00 +15°C° 0.3 mm 1 mps 685 mmHg 95%
    01:00 +14°C° 0.3 mm 1 mps 685 mmHg 96%
    02:00 +14°C° 0.6 mm 1 mps 685 mmHg 97%
    03:00 +15°C° 0.6 mm 1 mps 685 mmHg 97%
    04:00 +15°C° 0.6 mm 1 mps 686 mmHg 98%
    05:00 +15°C° 0.2 mm 1 mps 686 mmHg 97%
    06:00 +15°C° 0.2 mm 1 mps 686 mmHg 96%
    07:00 +15°C° 0.2 mm 1 mps 686 mmHg 95%
    08:00 +16°C° 0 mm 1 mps 687 mmHg 88%
    09:00 +18°C° 0 mm 1 mps 687 mmHg 81%
    10:00 +20°C° 0 mm 1 mps 687 mmHg 73%
    11:00 +19°C° 0.2 mm 2 mps 687 mmHg 70%
    12:00 +20°C° 0.2 mm 2 mps 688 mmHg 68%
    13:00 +21°C° 0.2 mm 2 mps 688 mmHg 65%
    14:00 +20°C° 0.3 mm 2 mps 687 mmHg 68%
    15:00 +20°C° 0.3 mm 2 mps 687 mmHg 71%
    16:00 +20°C° 0.3 mm 2 mps 687 mmHg 74%
    17:00 +19°C° 0.3 mm 2 mps 687 mmHg 79%
    18:00 +18°C° 0.3 mm 2 mps 687 mmHg 85%
    19:00 +18°C° 0.3 mm 2 mps 687 mmHg 91%
    20:00 +16°C° 0.1 mm 1 mps 687 mmHg 93%
    21:00 +15°C° 0.1 mm 1 mps 687 mmHg 96%
    22:00 +14°C° 0.1 mm 1 mps 688 mmHg 98%
    23:00 +14°C° 0 mm 1 mps 688 mmHg 98%

    Tomorrow, 17 June, Monday

    Time Temperature Precipitation Wind Pressure Humidity
    00:00 +14°C° 0 mm 1 mps 687 mmHg 97%
    01:00 +13°C° 0 mm 0 mps 687 mmHg 97%
    02:00 +12°C° 0 mm 0 mps 687 mmHg 97%
    03:00 +12°C° 0 mm 0 mps 687 mmHg 97%
    04:00 +11°C° 0 mm 0 mps 686 mmHg 97%
    05:00 +13°C° 0 mm 0 mps 687 mmHg 93%
    06:00 +14°C° 0 mm 0 mps 687 mmHg 90%
    07:00 +16°C° 0 mm 0 mps 688 mmHg 86%
    08:00 +20°C° 0 mm 1 mps 688 mmHg 76%
    09:00 +22°C° 0 mm 1 mps 688 mmHg 65%
    10:00 +24°C° 0 mm 1 mps 688 mmHg 54%
    11:00 +25°C° 0.2 mm 2 mps 688 mmHg 51%
    12:00 +26°C° 0.2 mm 2 mps 688 mmHg 48%
    13:00 +27°C° 0.2 mm 2 mps 687 mmHg 45%
    14:00 +26°C° 0.5 mm 2 mps 687 mmHg 48%
    15:00 +26°C° 0.5 mm 2 mps 687 mmHg 51%
    16:00 +26°C° 0.5 mm 2 mps 686 mmHg 54%
    17:00 +24°C° 1.3 mm 1 mps 686 mmHg 65%
    18:00 +23°C° 1.3 mm 1 mps 686 mmHg 75%
    19:00 +21°C° 1.3 mm 1 mps 685 mmHg 86%
    20:00 +20°C° 0.5 mm 1 mps 685 mmHg 87%
    21:00 +18°C° 0.5 mm 1 mps 685 mmHg 88%
    22:00 +15°C° 0.5 mm 1 mps 685 mmHg 90%
    23:00 +15°C° 0 mm 1 mps 685 mmHg 89%

    Day after tomorrow, 18 June, Tuesday

    Time Temperature Precipitation Wind Pressure Humidity
    00:00 +15°C° 0 mm 1 mps 685 mmHg 89%
    01:00 +15°C° 0 mm 1 mps 685 mmHg 88%
    02:00 +15°C° 0 mm 1 mps 685 mmHg 88%
    03:00 +14°C° 0 mm 1 mps 685 mmHg 87%
    04:00 +14°C° 0 mm 1 mps 684 mmHg 87%
    05:00 +16°C° 0 mm 1 mps 685 mmHg 83%
    06:00 +19°C° 0 mm 1 mps 685 mmHg 79%
    07:00 +19°C° 0 mm 0 mps 686 mmHg 75%
    08:00 +21°C° 0.3 mm 0 mps 686 mmHg 68%
    09:00 +24°C° 0.3 mm 1 mps 686 mmHg 60%
    10:00 +26°C° 0.3 mm 1 mps 686 mmHg 52%
    11:00 +27°C° 1 mm 1 mps 686 mmHg 52%
    12:00 +27°C° 1 mm 1 mps 686 mmHg 51%
    13:00 +27°C° 1 mm 2 mps 686 mmHg 51%
    14:00 +26°C° 1.4 mm 1 mps 685 mmHg 57%
    15:00 +25°C° 1.4 mm 1 mps 685 mmHg 62%
    16:00 +25°C° 1.4 mm 1 mps 685 mmHg 68%
    17:00 +23°C° 1.6 mm 1 mps 684 mmHg 76%
    18:00 +21°C° 1.6 mm 1 mps 684 mmHg 83%
    19:00 +20°C° 1.6 mm 1 mps 684 mmHg 91%
    20:00 +19°C° 1 mm 1 mps 684 mmHg 92%
    21:00 +18°C° 1 mm 1 mps 685 mmHg 94%
    22:00 +16°C° 1 mm 1 mps 685 mmHg 95%
    23:00 +16°C° 0 mm 1 mps 684 mmHg 94%

    19 June, Wednesday

    Time Temperature Precipitation Wind Pressure Humidity
    00:00 +15°C° 0 mm 1 mps 684 mmHg 92%
    01:00 +15°C° 0 mm 1 mps 684 mmHg 91%
    02:00 +15°C° 0 mm 1 mps 684 mmHg 90%
    03:00 +14°C° 0 mm 1 mps 684 mmHg 90%
    04:00 +14°C° 0 mm 1 mps 684 mmHg 89%
    05:00 +16°C° 0 mm 1 mps 684 mmHg 85%
    06:00 +17°C° 0 mm 0 mps 684 mmHg 81%
    07:00 +19°C° 0 mm 0 mps 685 mmHg 77%
    08:00 +21°C° 0.2 mm 0 mps 685 mmHg 67%
    09:00 +25°C° 0.2 mm 1 mps 685 mmHg 57%
    10:00 +27°C° 0.2 mm 1 mps 686 mmHg 47%
    11:00 +27°C° 0.5 mm 1 mps 685 mmHg 45%
    12:00 +28°C° 0.5 mm 1 mps 685 mmHg 43%
    13:00 +28°C° 0.5 mm 1 mps 685 mmHg 40%
    14:00 +27°C° 0.2 mm 1 mps 685 mmHg 43%
    15:00 +26°C° 0.2 mm 1 mps 685 mmHg 47%
    16:00 +26°C° 0.2 mm 1 mps 684 mmHg 50%
    17:00 +25°C° 0 mm 1 mps 684 mmHg 56%
    18:00 +22°C° 0 mm 0 mps 684 mmHg 62%
    19:00 +21°C° 0 mm 0 mps 684 mmHg 69%
    20:00 +21°C° 0 mm 1 mps 684 mmHg 72%
    21:00 +19°C° 0 mm 1 mps 684 mmHg 76%
    22:00 +16°C° 0 mm 1 mps 684 mmHg 79%
    23:00 +16°C° 0 mm 1 mps 684 mmHg 79%

    20 June, Thursday

    Time Temperature Precipitation Wind Pressure Humidity
    00:00 +16°C° 0 mm 1 mps 683 mmHg 78%
    01:00 +16°C° 0 mm 1 mps 683 mmHg 78%
    02:00 +15°C° 0 mm 1 mps 683 mmHg 78%
    03:00 +15°C° 0 mm 1 mps 683 mmHg 78%
    04:00 +14°C° 0 mm 0 mps 683 mmHg 78%
    05:00 +16°C° 0 mm 0 mps 684 mmHg 74%
    06:00 +18°C° 0 mm 0 mps 685 mmHg 69%
    07:00 +20°C° 0 mm 0 mps 685 mmHg 65%
    08:00 +23°C° 0.4 mm 1 mps 685 mmHg 63%
    09:00 +24°C° 0.4 mm 1 mps 686 mmHg 62%
    10:00 +25°C° 0.4 mm 1 mps 686 mmHg 61%
    11:00 +25°C° 0.9 mm 1 mps 686 mmHg 60%
    12:00 +25°C° 0.9 mm 1 mps 686 mmHg 59%
    13:00 +26°C° 0.9 mm 1 mps 685 mmHg 58%
    14:00 +25°C° 1.2 mm 1 mps 685 mmHg 63%
    15:00 +24°C° 1.2 mm 1 mps 685 mmHg 68%
    16:00 +24°C° 1.2 mm 1 mps 685 mmHg 73%
    17:00 +23°C° 0.9 mm 1 mps 685 mmHg 77%
    18:00 +22°C° 0.9 mm 1 mps 685 mmHg 82%
    19:00 +22°C° 0.9 mm 1 mps 685 mmHg 86%
    20:00 +20°C° 0.2 mm 1 mps 685 mmHg 88%
    21:00 +17°C° 0.2 mm 0 mps 685 mmHg 90%
    22:00 +15°C° 0.2 mm 0 mps 685 mmHg 92%
    23:00 +16°C° 0 mm 1 mps 685 mmHg 92%

    21 June, Friday

    Time Temperature Precipitation Wind Pressure Humidity
    00:00 +16°C° 0 mm 1 mps 684 mmHg 91%
    01:00 +15°C° 0 mm 1 mps 684 mmHg 91%
    02:00 +15°C° 0 mm 1 mps 684 mmHg 92%
    03:00 +15°C° 0 mm 1 mps 684 mmHg 92%
    04:00 +15°C° 0 mm 1 mps 684 mmHg 92%
    05:00 +16°C° 0 mm 1 mps 685 mmHg 90%
    06:00 +18°C° 0 mm 1 mps 685 mmHg 88%
    07:00 +20°C° 0 mm 1 mps 685 mmHg 85%
    08:00 +21°C° 0.1 mm 1 mps 686 mmHg 78%
    09:00 +23°C° 0.1 mm 1 mps 686 mmHg 71%
    10:00 +24°C° 0.1 mm 2 mps 686 mmHg 64%
    11:00 +24°C° 0.5 mm 2 mps 686 mmHg 68%
    12:00 +23°C° 0.5 mm 2 mps 686 mmHg 72%
    13:00 +23°C° 0.5 mm 2 mps 685 mmHg 76%
    14:00 +23°C° 0.7 mm 2 mps 685 mmHg 79%
    15:00 +22°C° 0.7 mm 1 mps 685 mmHg 81%
    16:00 +22°C° 0.7 mm 1 mps 684 mmHg 83%
    17:00 +21°C° 0.8 mm 1 mps 684 mmHg 87%
    18:00 +21°C° 0.8 mm 1 mps 684 mmHg 90%
    19:00 +20°C° 0.8 mm 1 mps 685 mmHg 94%
    20:00 +17°C° 0.8 mm 0 mps 685 mmHg 95%
    21:00 +16°C° 0.8 mm 0 mps 685 mmHg 96%
    22:00 +15°C° 0.8 mm 0 mps 685 mmHg 97%
    23:00 +15°C° 0.2 mm 0 mps 685 mmHg 97%
    Show more